Location: Elliott Island road
(38.3470°N, 75.9376°W)
Time: 23:15:41
(UTC-04:00)

OTV 5 (USA 277) - Visible Passes

Search period start: 21 July 2018 00:00
Search period end: 31 July 2018 00:00
Orbit: 312 x 321 km, 54.5° (Epoch: 05 July)

Date Brightness Start Highest point End Pass type
(mag) Time Alt. Az. Time Alt. Az. Time Alt. Az.
26 Jul ? 05:25:02 10° S 05:27:06 20° SE 05:29:11 10° ENE visible
28 Jul ? 04:21:14 11° SE 04:21:51 12° SE 04:22:55 10° ESE visible
29 Jul ? 04:35:23 28° SSE 04:36:05 34° SE 04:38:36 10° ENE visible
30 Jul ? 04:49:27 32° WSW 04:50:29 64° NW 04:53:10 10° NE visible
